Location: Dayton
(39.7590°N, 84.1920°W)
Time: 21:14:56
(UTC-04:00)

Daily predictions for brighter satellites

Satellite Brightness Start Highest point End
(mag) Time Altitude Azimuth Time Altitude Azimuth Time Altitude Azimuth
NOSS 3-4 (A) 4.0 20:29:11 10° NNW 20:36:07 60° NE 20:43:26 10° SE
NOSS 3-4 (C) 4.0 20:29:18 10° NNW 20:36:14 59° NE 20:43:33 10° SE
Cosmos 2208 Rocket 4.2 20:39:02 10° S 20:44:11 54° ESE 20:49:27 10° NNE
CZ-2D R/B 3.8 20:43:05 10° SE 20:46:43 41° ENE 20:50:23 10° N
FengYun 1-2 T 4.3 20:41:55 10° SSE 20:47:34 79° ENE 20:53:11 10° N
Cosmos 1461 3.4 20:44:27 10° NNW 20:48:18 39° NE 20:52:01 10° SE
Cosmos 1025 Rocket 3.4 20:44:03 10° NNW 20:48:24 72° W 20:52:42 10° S
OAO 2 Rocket 4.0 20:44:31 10° SW 20:49:06 37° SSE 20:53:48 10° E
Meteor 2-14 Rocket 4.5 20:43:05 10° S 20:49:09 68° E 20:55:16 10° NNE
Hubble Space Telescope 3.1 20:47:52 10° SW 20:49:56 13° SSW 20:51:59 10° SSE
Spot 2 Rocket 4.0 20:45:05 10° S 20:50:08 67° WSW 20:55:13 10° NNW
Cosmos 1892 Rocket 3.6 20:46:50 10° N 20:51:20 74° E 20:55:47 10° SSE
Cosmos 2123 Rocket 4.2 20:45:23 10° N 20:51:25 53° E 20:57:24 10° SSE
Cosmos 1455 Rocket 3.1 20:50:59 10° S 20:55:13 58° E 20:59:30 10° NNE
FENGYUN 3A 3.7 20:50:16 10° SSE 20:55:32 63° ENE 21:00:50 10° N
NOSS 7 (E) 4.3 20:53:08 10° SSW 20:56:39 83° ESE 21:00:01 10° NE
Cosmos 2227 Rocket 2.4 20:52:40 10° NNW 20:58:14 55° ENE 21:03:45 10° SE
Cosmos 1656 4.3 20:54:26 10° SSE 20:59:22 32° ESE 21:04:16 10° NE
Cosmos 1570 Rocket 4.0 20:54:42 10° SSW 21:00:00 83° ESE 21:05:18 10° NNE
Resurs 1-3 4.0 20:55:43 10° S 21:00:03 66° WSW 21:04:27 10° NNW
Cosmos 1602 Rocket 4.4 20:56:28 10° NNE 21:00:28 32° ENE 21:04:26 10° SE
Envisat 4.4 20:57:13 10° ESE 21:00:51 21° ENE 21:04:33 10° NNE
CZ-4B DEB 2.9 20:58:59 10° S 21:02:14 78° WSW 21:05:33 10° NNW
Cosmos 1346 Rocket 2.7 21:00:09 10° N 21:04:06 71° E 21:08:04 10° SSE
NOSS 7 (H) 4.4 21:02:59 10° SSW 21:06:16 56° ESE 21:09:35 10° NE
Meteor 1-5 Rocket 4.2 21:04:15 10° S 21:09:34 86° W 21:15:04 10° N
Iridium 4 Rocket 3.9 21:05:15 10° NNE 21:09:56 36° E 21:14:13 10° SSE
ALOS 2.3 21:05:45 10° SSE 21:10:25 89° WSW 21:15:08 10° NNW
Cosmos 2082 3.7 21:06:54 10° NNW 21:12:31 67° ENE 21:18:05 10° SSE
Cosmos 2297 Rocket 2.4 21:08:11 10° NNW 21:13:42 53° ENE 21:18:32 14° SE
Cosmos 220 Rocket 4.4 21:13:59 10° N 21:18:01 43° ENE 21:20:50 18° SE
Cosmos 1934 Rocket 4.2 21:13:27 10° SSW 21:19:33 74° W 21:25:48 10° N
Resurs 01 Rocket 3.6 21:15:48 10° SSW 21:19:42 30° W 21:23:37 10° NW
CZ-3C R/B 4.2 20:18:24 10° WSW 21:19:45 37° SSW 21:28:20 13° SE
RESURS DK-1 4.1 21:16:56 10° N 21:19:49 18° NE 21:21:23 15° E
USA 186 1.9 21:22:09 10° S 21:25:24 73° W 21:28:27 10° NNW
DELTA 2 R/B (1) 3.6 21:21:37 10° W 21:27:12 81° S 21:31:01 21° ESE
BREEZE-M DEB (TANK) 4.4 21:07:02 10° SW 21:27:23 68° SSE 21:32:34 10° ENE
Cosmos 1515 4.1 21:25:07 10° N 21:28:48 43° E 21:30:47 23° SE
ERS-1 Rocket 3.2 21:27:56 17° SE 21:31:37 51° ENE 21:36:28 10° N
Cosmos 1743 3.6 21:40:01 29° E 21:40:08 29° E 21:43:33 10° NNE
Cosmos 1898 Rocket 3.7 21:35:29 10° N 21:40:41 53° ENE 21:43:26 26° SE
OTV 4 1.4 21:37:59 10° W 21:40:43 33° SSW 21:41:08 31° S
BREEZE-M DEB (TANK) 4.4 21:38:40 10° WSW 21:42:52 82° NNW 21:58:55 10° ENE
Cosmos 1763 Rocket 4.4 21:43:24 26° E 21:43:24 26° E 21:47:32 10° NE
Lacrosse 5 2.6 21:41:08 10° NNW 21:45:54 40° NE 21:48:07 26° E
Tiangong 1 1.8 21:44:01 10° WNW 21:47:01 46° N 21:47:55 34° NE
Cosmos 1066 Rocket 4.3 21:41:37 10° N 21:47:14 61° ENE 21:50:49 23° SSE
Cosmos 2016 Rocket 4.5 21:47:10 25° SE 21:49:49 37° E 21:55:24 10° NNE
Cosmos 1697 Rocket 2.6 21:44:49 10° S 21:50:24 66° ESE 21:56:00 10° NNE
SPOT 5 3.6 21:50:57 31° ESE 21:52:24 38° ENE 21:56:52 10° N
Cosmos 1975 3.5 21:50:37 10° SSW 21:54:38 57° W 21:58:42 10° N
Cosmos 468 Rocket 3.8 21:52:10 10° SSW 21:57:16 77° ESE 22:02:24 10° NNE
Cosmos 2173 Rocket 4.0 21:56:18 11° S 22:02:18 67° E 22:08:35 10° NNE
USA 215 4.5 22:00:24 16° ENE 22:04:35 31° NNE 22:10:08 10° NW
Cosmos 841 Rocket 4.0 22:05:13 36° E 22:05:13 36° E 22:09:38 10° NE
Lacrosse 5 rocket 1.6 22:01:20 10° NW 22:04:53 49° SW 22:05:31 43° SSW
Cosmos 1814 Rocket 3.9 22:01:15 10° SSW 22:06:35 79° ESE 22:11:55 10° NNE
Cosmos 972 Rocket 4.4 22:03:04 10° NNW 22:09:01 75° ENE 22:12:04 34° SSE
CZ-4 DEB 4.1 22:11:14 30° SW 22:12:04 36° W 22:15:01 10° NNW
Cosmos 1825 Rocket 3.5 22:07:40 10° N 22:12:04 63° E 22:12:29 59° ESE
ARGOS 3.9 22:12:12 33° E 22:12:43 33° ENE 22:17:29 10° N
Cosmos 1980 Rocket 2.1 22:07:25 10° S 22:12:58 61° ESE 22:18:36 10° NNE
Cosmos 2100 Rocket 3.9 22:08:02 10° S 22:14:20 90° SSE 22:20:37 10° N
Cosmos 2061 Rocket 3.9 22:12:27 12° S 22:18:20 88° E 22:24:38 10° N
Cosmos 1953 Rocket 3.7 22:17:17 10° N 22:21:30 57° ENE 22:21:30 57° ENE
Tsikada Rocket 4.4 22:16:35 10° N 22:22:40 42° ENE 22:23:28 40° E
H-2A R/B 1.8 22:23:39 78° S 22:23:54 85° WSW 22:28:03 10° NNW
Terra 3.8 22:28:05 16° NE 22:28:05 16° NE 22:30:09 10° NNE
Cosmos 1939 Rocket 3.8 22:26:45 34° SW 22:28:02 45° W 22:32:03 10° NNW
MetOp-B 4.0 22:28:30 59° SE 22:29:27 75° ENE 22:34:49 10° N
Milstar 3 Cent rocket 4.2 22:10:20 10° W 22:29:47 49° SSW 22:34:14 35° SSE
OAO 2 Rocket 3.7 22:28:38 10° WSW 22:33:01 48° SSW 22:33:01 48° SSW
deb Chang Zheng 4 4.1 22:33:31 10° N 22:37:55 59° WNW 22:39:28 37° SW
ASTEX 1 3.3 22:33:49 10° N 22:38:51 90° ENE 22:39:19 74° S
Envisat 3.8 22:37:26 30° SSW 22:39:30 46° W 22:44:24 10° NNW
Cosmos 1758 Rocket 3.8 22:36:16 10° N 22:39:54 60° N 22:39:54 60° N
Meteor 1-21 4.2 22:35:48 10° N 22:41:36 82° W 22:42:53 56° S
Cosmos 2227 Rocket 4.4 22:37:51 10° NW 22:41:47 20° W 22:45:43 10° SW
Cosmos 2263 Rocket 3.8 22:37:49 10° N 22:41:51 21° NE 22:41:51 21° NE
Cosmos 2322 Rocket 3.6 22:48:05 24° NE 22:48:05 24° NE 22:50:24 10° NE
Cosmos 1937 Rocket 4.0 22:40:23 10° NNW 22:45:32 56° WSW 22:46:32 48° SW
H-2A R/B 3.2 22:48:51 30° NE 22:48:51 30° NE 22:52:08 10° N
Cosmos 1725 Rocket 3.8 22:47:52 67° SE 22:48:33 75° E 22:54:47 10° N
Cosmos 2360 4.1 22:53:08 67° SSW 22:53:59 87° WNW 22:59:46 10° NNE
Cosmos 1340 4.1 22:50:35 10° NNW 22:53:18 37° NW 22:53:18 37° NW
Meteor 2-9 Rocket 4.0 22:56:00 86° NNE 22:56:00 86° NNE 23:01:20 10° N
Cosmos 2297 Rocket 4.3 22:53:14 10° NW 22:57:18 21° W 23:00:22 14° SW
RESURS DK-1 3.7 22:54:09 10° NW 22:57:19 36° W 22:57:19 36° W
Cosmos 990 Rocket 4.4 22:54:31 10° NNW 22:59:40 56° WSW 22:59:50 56° WSW
YAOGAN 6 4.5 23:01:27 30° NW 23:01:27 30° NW 23:03:40 10° NNW
Cosmos 2098 Rocket 4.1 22:58:17 47° SSW 23:00:30 80° W 23:06:31 10° N
Cosmos 2058 Rocket 4.0 23:03:28 48° NNW 23:03:28 48° NNW 23:06:55 10° N
Cosmos 2227 4.2 22:56:57 10° NNW 23:02:41 79° WSW 23:02:41 79° WSW
CZ-4B R/B 4.2 22:58:54 10° NNE 23:02:02 42° NNE 23:02:02 42° NNE
SPOT 1/Viking Rocket 3.7 23:07:00 70° WNW 23:07:00 70° WNW 23:11:50 10° NNW
Cosmos 2233 Rocket 4.1 23:15:54 62° NE 23:15:54 62° NE 23:21:10 10° N
Lacrosse 5 3.4 23:24:13 10° WNW 23:27:19 29° W 23:27:19 29° W
Cosmos 1125 Rocket 4.3 23:23:48 10° NNW 23:27:33 48° NNW 23:27:33 48° NNW
SL-16 R/B 3.2 23:42:47 40° N 23:42:47 40° N 23:46:26 10° NNE
USA 215 3.3 23:47:44 72° NNW 23:47:44 72° NNW 23:53:34 10° NW
